Wind_Speed
10 8 7 8 10 13 14 14 15 16 17 17 17 17 15 15 14 14 12 12 12 11 11 12 13 14 16 18 19 20 9 12 11 7 3 5 6 6 8 6 5 3 5 6 5
8 9 9 8 9 11 12 13 13 14 15 16 16 16 14 14 14 13 13 15 13 11 10 10 11 13 15 16 18 20 11 10 10 9 4 7 9 6 4 2 2 4 10 9 6
9 7 8 9 7 9 10 12 12 13 13 15 16 15 14 13 13 13 15 14 13 13 13 14 13 12 13 16 18 19 11 11 11 10 9 9 5 4 5 9 11 10 10 9 9
10 9 8 9 8 6 8 10 12 12 13 15 16 15 14 13 6 10 14 14 15 15 16 15 16 16 14 16 15 13 17 11 12 10 9 9 7 11 10 10 12 13 14 14 15
11 10 9 8 9 7 6 9 11 13 14 15 16 15 14 13 15 7 10 13 15 16 15 13 14 14 13 12 12 16 10 14 16 14 11 8 9 13 11 11 12 12 14 17 17
12 11 10 9 7 7 7 8 10 13 14 14 14 13 13 12 11 13 10 10 14 15 15 15 14 12 10 9 12 7 14 13 14 14 13 8 12 12 11 11 11 12 12 15 16
13 12 11 10 8 7 6 7 10 11 12 12 12 12 12 14 11 13 13 10 15 16 15 15 15 15 10 8 14 12 8 8 12 14 14 18 15 17 15 15 11 8 10 11 15
15 13 12 11 10 9 7 7 8 10 11 11 12 12 13 13 13 11 14 14 16 17 18 17 16 16 12 14 6 12 11 10 12 13 15 15 12 16 16 14 12 9 9 8 10
16 15 14 13 12 11 9 9 9 9 9 10 11 11 14 14 15 15 13 15 17 17 16 16 18 15 16 10 7 10 7 13 10 11 10 14 15 18 18 15 12 11 11 11 12
19 17 16 14 14 12 12 10 9 11 11 10 11 10 14 14 16 18 19 16 19 17 17 17 17 15 16 15 8 14 14 10 9 10 13 16 15 19 20 18 16 15 15 16 17
19 19 18 17 15 15 13 12 11 12 13 13 7 18 7 15 13 18 20 20 18 19 19 18 18 19 16 18 12 4 8 9 11 14 10 10 13 13 18 20 21 21 21 21 22
19 18 19 18 18 17 16 14 12 10 9 13 16 13 14 12 15 17 20 22 23 22 17 18 23 16 13 16 17 18 12 13 10 14 13 14 18 20 22 24 26 27 28 28 28
20 19 18 19 19 18 16 15 14 12 12 14 15 17 16 13 14 17 19 23 21 19 21 16 10 13 23 20 19 17 16 14 10 10 13 15 15 19 22 22 23 25 26 27 27
19 18 18 18 20 18 18 16 14 11 7 12 18 19 20 17 15 15 21 21 20 18 15 15 21 18 9 14 16 15 14 16 13 10 13 20 5 15 21 24 26 26 25 23 20
15 17 18 18 17 19 13 16 14 12 5 9 17 17 20 23 15 22 20 20 16 17 18 10 13 18 22 18 14 14 17 16 15 17 15 14 10 11 16 15 19 20 18 16 16
12 14 17 18 17 16 15 16 16 10 6 9 13 16 18 24 22 15 25 24 22 17 18 13 15 11 9 12 14 11 9 7 6 8 10 22 20 8 12 24 22 18 18 17 17
10 10 13 16 17 19 18 20 13 10 9 10 14 16 15 20 18 16 22 22 13 12 17 16 16 17 13 10 13 14 12 6 6 6 7 12 18 9 20 20 16 15 15 15 15
9 10 9 13 16 21 22 26 12 10 11 13 15 18 12 18 17 19 19 18 24 16 5 17 8 18 19 17 9 21 17 9 7 10 8 6 8 10 14 16 14 13 13 13 13
6 8 11 11 14 21 26 20 8 9 20 15 17 16 17 21 13 17 13 13 20 23 7 10 7 15 14 18 17 11 14 15 8 12 5 9 5 8 13 13 13 12 11 11 12
5 5 6 9 12 19 27 20 15 13 14 20 13 15 15 18 13 14 15 15 17 21 22 9 4 13 15 13 16 12 12 6 10 5 11 11 8 5 10 12 12 12 11 12 14
6 5 5 5 12 20 18 17 16 13 14 20 15 18 13 16 13 13 11 14 18 19 19 15 10 5 13 14 12 9 8 10 8 6 5 10 5 8 14 11 9 9 11 15 20
6 5 5 6 15 22 23 19 18 14 15 16 16 15 15 17 20 16 16 14 14 14 11 15 10 6 9 12 15 15 15 13 8 8 6 6 4 8 9 10 11 14 17 22 26
7 8 8 10 9 16 17 18 18 18 18 16 14 16 15 19 13 18 15 15 13 13 10 12 6 5 1 9 14 13 14 15 15 14 7 5 4 7 11 13 14 20 25 27 28
9 7 11 15 17 11 15 16 17 17 17 17 14 14 15 16 16 13 16 15 15 14 12 11 9 8 1 4 5 5 8 10 10 4 5 8 12 11 15 20 22 23 23 23 23
10 11 12 12 21 19 14 11 17 14 15 16 15 15 16 13 15 13 14 14 13 12 12 11 8 12 12 11 11 11 13 14 14 17 12 17 16 16 19 21 22 21 22 24 25
8 11 12 15 15 18 17 16 15 14 13 15 11 14 14 12 14 14 13 14 12 12 12 12 7 9 10 11 11 13 15 16 18 19 20 21 24 23 21 20 23 24 24 26 27
5 6 8 9 12 14 15 13 16 14 12 13 13 12 12 11 11 10 11 11 9 10 10 9 8 7 3 5 4 8 15 14 13 12 12 10 14 16 21 23 24 26 27 27 28
Wind_Direction
341 332 301 271 256 247 241 238 235 232 232 230 230 230 232 237 243 236 229 226 225 220 211 206 191 194 193 200 202 203 205 221 220 227 209 198 159 184 192 222 215 238 247 261 271
326 332 326 303 270 255 245 237 229 225 229 226 223 226 229 233 238 239 232 229 230 222 214 207 197 199 197 201 201 197 210 220 209 203 161 181 165 174 144 145 73 4 242 248 242
305 315 321 320 296 259 243 235 227 221 225 226 223 225 225 227 239 235 237 231 226 218 205 192 193 198 201 204 204 203 209 226 218 203 191 169 152 182 165 195 203 216 262 235 234
293 298 308 317 315 279 247 234 227 222 220 222 226 224 223 223 210 238 230 229 222 213 207 204 198 199 200 208 211 206 209 214 213 194 181 183 183 242 223 235 245 257 260 250 249
285 289 295 306 316 302 262 240 229 225 221 223 225 225 223 223 223 236 224 221 214 209 206 204 207 199 206 210 208 220 225 221 221 225 220 214 225 242 251 249 251 251 252 245 240
279 279 282 285 291 296 263 235 227 223 220 222 223 225 221 221 225 226 226 225 205 198 195 194 201 198 211 200 217 238 221 224 223 225 222 195 222 232 235 224 249 254 253 245 239
273 271 269 269 267 267 262 235 226 221 218 218 221 220 220 217 223 221 220 214 193 189 187 193 200 197 211 213 224 227 217 225 224 221 220 211 220 231 238 235 238 240 254 249 235
272 267 264 259 259 253 248 237 224 224 221 217 220 223 225 220 221 220 214 208 196 188 189 194 196 189 178 214 218 225 239 220 229 222 221 197 230 217 212 211 213 216 229 234 231
269 268 263 261 255 254 246 238 227 223 221 220 222 228 233 225 222 218 210 206 205 198 198 205 194 199 201 193 212 218 236 204 201 190 190 172 210 207 200 199 210 222 233 238 239
269 265 262 258 257 251 249 243 234 228 220 219 221 226 233 226 220 217 216 210 207 204 206 210 208 206 206 203 198 215 216 200 194 196 167 192 211 200 203 214 228 239 247 249 249
272 265 259 256 254 250 246 244 242 242 232 228 214 220 228 220 212 214 214 213 207 207 213 216 215 216 217 216 230 193 196 195 183 178 158 221 225 215 222 235 243 248 253 256 255
263 265 261 252 248 247 245 242 240 247 240 231 231 229 226 227 219 211 207 206 209 211 196 218 228 223 229 219 224 229 225 223 215 215 203 230 244 250 248 245 248 254 258 261 263
257 255 258 255 246 245 240 238 233 236 245 245 232 228 225 220 216 212 203 206 213 207 219 216 236 233 231 232 232 231 227 222 219 234 204 223 252 246 244 245 245 249 254 258 262
254 252 250 252 246 239 238 229 229 223 235 255 228 226 220 211 211 201 198 200 205 209 221 234 241 238 223 220 224 235 242 227 219 207 229 211 222 226 241 247 249 252 255 257 256
256 250 245 242 247 237 227 227 207 199 253 232 214 215 211 205 217 209 205 208 213 213 209 217 237 238 235 234 229 238 240 244 223 230 243 229 239 204 231 240 244 244 244 248 257
269 249 242 238 234 228 207 202 190 182 234 206 202 200 195 203 216 214 206 212 217 219 222 223 237 216 200 212 192 211 197 193 182 206 236 235 214 182 200 221 244 245 251 261 270
282 254 245 237 228 216 203 183 171 224 209 212 200 193 183 199 204 202 204 205 203 200 220 222 231 225 216 211 206 199 174 182 208 206 242 202 208 234 226 239 244 255 261 267 275
281 252 234 260 223 207 193 181 218 204 191 209 194 181 183 196 203 204 197 203 204 199 185 200 217 226 229 209 213 210 200 216 225 221 222 188 216 226 245 246 248 251 256 265 272
295 265 239 248 224 202 187 199 230 206 205 192 175 182 199 203 201 191 187 194 210 203 200 201 199 208 215 212 202 192 216 228 257 262 282 176 210 243 235 244 253 261 269 273 279
308 286 263 229 218 200 194 215 232 220 199 192 185 191 197 196 197 187 190 213 206 209 209 206 176 205 208 202 202 191 194 203 214 242 237 231 145 174 216 242 250 251 259 278 291
287 286 280 229 188 192 201 231 233 226 204 187 202 190 176 195 188 185 191 216 212 214 213 211 202 214 205 202 197 211 220 220 226 246 265 268 135 173 220 234 240 253 275 290 298
276 254 231 198 175 194 205 224 227 222 216 208 211 208 201 196 192 197 211 212 212 210 203 204 201 180 208 223 225 227 221 217 234 236 240 271 229 221 228 224 254 275 289 297 301
262 247 218 198 195 218 219 227 229 225 216 218 215 210 212 201 196 208 212 213 213 206 194 190 196 148 264 250 245 238 238 238 236 250 240 277 239 240 245 253 269 288 294 298 300
244 231 221 214 219 233 228 228 222 219 218 217 218 212 206 197 203 203 207 207 206 202 204 190 199 195 152 150 182 206 227 231 229 220 259 241 270 264 270 278 287 293 295 295 295
235 236 235 223 227 230 233 234 217 206 207 206 208 204 197 192 196 201 200 200 205 211 214 215 221 226 239 244 246 249 248 246 250 252 257 264 274 282 288 291 294 294 296 297 299
259 252 245 241 233 228 224 222 215 209 205 202 206 202 201 205 202 204 209 208 211 221 227 228 218 222 240 249 257 263 259 257 255 257 260 266 273 278 283 288 291 294 297 300 302
301 257 235 230 214 205 214 221 208 204 203 203 201 197 199 203 208 209 207 213 221 214 207 209 213 192 165 250 264 273 249 243 252 253 257 258 268 283 288 292 297 300 303 303 302
Height
3066 3065 3063 3063 3063 3064 3063 3063 3065 3066 3069 3070 3071 3075 3075 3078 3078 3080 3080 3082 3081 3085 3086 3088 3089 3094 3096 3098 3101 3103 3110 3111 3113 3115 3115 3114 3117 3118 3121 3123 3125 3126 3126 3125 3124
3065 3064 3063 3061 3061 3062 3060 3061 3062 3063 3066 3068 3069 3072 3073 3075 3076 3078 3078 3078 3080 3083 3085 3087 3088 3093 3094 3096 3099 3101 3107 3110 3110 3112 3113 3113 3116 3118 3121 3123 3125 3124 3120 3122 3122
3063 3062 3062 3061 3059 3059 3058 3058 3059 3061 3063 3066 3068 3069 3071 3072 3073 3074 3075 3076 3078 3080 3083 3085 3087 3092 3094 3095 3097 3099 3105 3107 3108 3109 3110 3112 3115 3116 3116 3115 3117 3118 3118 3119 3119
3060 3060 3059 3058 3058 3056 3056 3056 3057 3059 3061 3063 3066 3067 3068 3069 3074 3071 3072 3074 3075 3078 3081 3082 3086 3089 3092 3093 3095 3097 3101 3103 3106 3108 3109 3111 3112 3107 3112 3114 3114 3115 3116 3116 3116
3058 3057 3056 3056 3055 3054 3053 3054 3055 3057 3058 3061 3063 3064 3065 3067 3068 3068 3070 3071 3073 3075 3079 3081 3085 3088 3090 3092 3094 3095 3099 3100 3103 3106 3108 3110 3107 3108 3109 3110 3111 3111 3112 3113 3114
3055 3055 3054 3054 3054 3053 3053 3053 3054 3055 3057 3059 3060 3062 3063 3064 3065 3066 3068 3069 3071 3074 3076 3080 3083 3087 3089 3090 3092 3094 3096 3098 3100 3103 3105 3107 3104 3106 3106 3107 3107 3108 3108 3109 3110
3053 3052 3052 3052 3052 3052 3052 3051 3052 3054 3055 3056 3058 3058 3060 3062 3062 3064 3066 3068 3070 3072 3075 3078 3081 3084 3087 3087 3089 3091 3094 3096 3098 3099 3101 3102 3103 3101 3103 3104 3104 3105 3106 3107 3108
3049 3049 3049 3049 3050 3050 3050 3050 3050 3052 3053 3054 3055 3056 3057 3058 3060 3062 3064 3066 3069 3071 3073 3076 3079 3081 3083 3084 3087 3090 3092 3095 3094 3095 3097 3101 3099 3098 3099 3101 3102 3103 3105 3106 3106
3045 3045 3045 3045 3046 3047 3048 3048 3048 3049 3050 3051 3052 3053 3054 3056 3057 3060 3062 3065 3068 3070 3072 3075 3077 3078 3081 3084 3088 3087 3089 3092 3091 3093 3094 3098 3094 3095 3097 3099 3100 3101 3103 3103 3104
3040 3040 3041 3041 3043 3043 3044 3045 3046 3047 3047 3048 3049 3053 3052 3053 3055 3057 3060 3063 3065 3068 3071 3073 3074 3075 3078 3082 3083 3084 3088 3090 3091 3092 3093 3093 3092 3092 3094 3096 3097 3098 3099 3100 3101
3035 3036 3036 3037 3038 3040 3041 3043 3046 3045 3044 3046 3046 3047 3048 3050 3052 3054 3057 3060 3063 3067 3068 3069 3072 3071 3076 3078 3082 3082 3085 3087 3089 3089 3093 3090 3090 3091 3092 3092 3093 3094 3095 3096 3097
3030 3030 3031 3033 3033 3035 3037 3039 3041 3043 3042 3042 3043 3045 3046 3047 3049 3051 3054 3058 3060 3062 3065 3068 3066 3072 3075 3076 3078 3079 3082 3085 3088 3087 3089 3087 3088 3088 3088 3089 3089 3089 3089 3090 3091
3024 3025 3026 3028 3029 3031 3033 3036 3037 3039 3040 3039 3040 3041 3044 3046 3046 3048 3051 3053 3057 3060 3061 3065 3066 3067 3069 3072 3074 3076 3078 3081 3084 3083 3086 3084 3085 3084 3083 3083 3083 3084 3085 3085 3085
3018 3019 3021 3023 3026 3026 3029 3032 3034 3037 3038 3036 3035 3036 3039 3041 3044 3045 3048 3052 3054 3058 3060 3062 3063 3064 3066 3067 3071 3074 3074 3076 3079 3081 3082 3081 3079 3078 3076 3077 3077 3078 3079 3079 3080
3013 3014 3016 3018 3020 3022 3026 3029 3031 3036 3034 3031 3029 3030 3033 3039 3039 3041 3045 3048 3051 3054 3057 3059 3058 3060 3062 3065 3068 3070 3070 3072 3075 3077 3079 3078 3080 3072 3073 3072 3072 3072 3073 3075 3076
3009 3009 3011 3013 3015 3019 3020 3024 3029 3034 3028 3024 3024 3026 3030 3032 3034 3038 3042 3045 3047 3051 3053 3055 3056 3057 3059 3059 3062 3064 3067 3069 3072 3075 3073 3070 3072 3072 3071 3067 3066 3068 3070 3070 3071
3006 3006 3007 3009 3012 3014 3018 3021 3028 3023 3022 3021 3021 3023 3028 3029 3032 3034 3037 3041 3046 3050 3050 3052 3053 3053 3056 3058 3060 3062 3066 3067 3070 3070 3062 3061 3065 3063 3062 3063 3065 3065 3066 3066 3067
3003 3003 3004 3006 3007 3010 3015 3020 3018 3014 3016 3016 3018 3022 3026 3027 3029 3031 3035 3037 3041 3043 3045 3047 3050 3049 3050 3054 3056 3057 3062 3059 3056 3054 3054 3059 3059 3056 3059 3059 3061 3062 3063 3063 3063
3002 3001 3001 3003 3004 3007 3012 3014 3010 3010 3011 3013 3017 3021 3022 3025 3028 3030 3035 3037 3035 3039 3043 3043 3044 3043 3045 3048 3053 3055 3056 3058 3057 3055 3055 3052 3055 3056 3056 3057 3057 3057 3058 3059 3059
3001 3000 3000 3000 3001 3005 3009 3010 3008 3008 3008 3011 3015 3017 3019 3021 3026 3028 3029 3030 3032 3034 3037 3039 3042 3041 3043 3046 3049 3049 3052 3055 3056 3052 3048 3042 3050 3053 3052 3052 3054 3055 3055 3056 3056
3001 3000 2999 2998 2999 3003 3006 3006 3006 3007 3008 3010 3010 3012 3015 3017 3023 3025 3027 3027 3028 3030 3033 3035 3038 3041 3042 3043 3043 3048 3048 3049 3050 3049 3043 3040 3050 3051 3050 3051 3051 3053 3053 3053 3052
2999 2999 2998 2998 3001 2999 3000 3003 3004 3005 3007 3007 3008 3010 3012 3014 3017 3019 3021 3022 3025 3028 3030 3032 3034 3038 3039 3039 3040 3042 3042 3045 3047 3046 3046 3046 3049 3048 3048 3049 3050 3050 3050 3049 3048
2997 2997 2997 2998 2999 2998 2999 3000 3002 3003 3004 3006 3006 3007 3009 3012 3016 3016 3018 3020 3022 3025 3027 3030 3032 3035 3037 3039 3038 3039 3040 3041 3043 3044 3044 3047 3045 3045 3046 3046 3047 3046 3045 3044 3043
2996 2996 2996 2996 2996 2996 2997 2998 2998 2999 3001 3002 3004 3005 3007 3009 3011 3012 3015 3017 3019 3022 3025 3027 3029 3030 3032 3034 3036 3037 3037 3039 3041 3043 3042 3043 3040 3041 3042 3042 3041 3041 3040 3039 3038
2994 2993 2993 2992 2993 2994 2995 2994 2995 2996 2998 2999 3000 3002 3004 3006 3008 3010 3012 3015 3018 3020 3023 3026 3027 3029 3029 3031 3033 3034 3035 3036 3038 3038 3040 3039 3038 3038 3038 3038 3036 3035 3034 3033 3031
2992 2991 2990 2989 2989 2991 2991 2991 2993 2994 2996 2996 2998 3000 3002 3004 3006 3007 3010 3013 3015 3018 3020 3022 3024 3026 3028 3028 3029 3030 3031 3032 3033 3034 3034 3035 3035 3035 3034 3033 3032 3030 3029 3027 3025
2990 2989 2989 2987 2987 2988 2989 2989 2990 2992 2994 2994 2996 2998 3000 3002 3004 3006 3008 3011 3013 3016 3018 3021 3022 3024 3027 3027 3028 3029 3026 3027 3029 3031 3032 3032 3032 3031 3030 3028 3026 3024 3023 3021 3019